Theta_e
332 332 331 330 330 331 330 330 331 329 329 328 328 328 327 326 325 325 324 323 323 322
330 331 330 331 331 331 332 330 330 329 328 328 327 327 326 325 324 324 323 323 322 321
327 329 330 331 330 330 331 330 329 328 328 327 327 327 326 324 324 322 321 320 320 319
326 327 329 329 330 330 330 329 328 327 327 326 326 325 324 323 322 320 319 318 316 316
324 325 326 326 328 329 328 329 328 327 325 325 324 324 323 320 317 317 315 316 315 314
322 323 324 325 326 327 327 326 325 324 322 322 322 322 321 319 317 316 316 315 312 308
320 322 323 324 323 323 322 321 321 320 320 320 320 319 319 317 315 311 307 305 304 303
317 319 321 320 318 317 317 319 319 318 316 314 312 309 309 307 304 301 299 298 298 298
309 307 309 309 307 305 304 305 304 303 302 301 299 297 298 300 300 298 297 295 295 295
302 297 297 297 296 296 296 296 296 297 296 294 295 295 296 295 299 299 299 298 295 292
295 294 294 294 294 294 294 295 294 293 293 293 293 295 294 293 297 297 296 294 292 291
295 293 293 294 295 296 294 293 293 292 291 291 289 293 293 293 291 290 289 290 292 292
295 292 292 293 294 292 293 289 289 288 289 287 288 292 292 291 289 287 286 287 286 287
294 291 292 291 291 289 289 287 287 286 287 287 288 290 292 291 288 288 287 286 286 286
Wind_Speed
20 14 14 15 12 11 11 11 13 14 14 15 15 14 13 11 11 12 11 14 12 8
18 19 16 18 15 12 12 10 12 13 13 14 14 14 13 11 12 11 11 11 11 10
17 17 17 15 16 16 14 13 11 12 13 13 13 13 12 12 12 12 9 8 9 8
14 16 15 14 14 14 12 12 13 13 12 12 12 13 13 12 12 10 11 8 10 12
12 12 13 14 14 13 13 13 12 11 12 14 14 13 11 10 6 10 11 12 10 11
12 13 14 14 13 12 12 11 10 11 11 12 10 10 9 9 11 10 11 9 8 6
11 11 11 11 11 11 8 8 8 9 9 9 10 9 8 8 8 6 5 5 5 5
8 8 9 8 7 7 7 8 8 8 5 4 5 4 6 6 6 6 6 5 5 5
6 5 5 5 5 5 5 5 5 6 7 7 4 8 10 9 7 7 7 7 5 5
6 7 6 6 7 7 7 5 6 6 7 7 6 11 12 12 8 8 7 7 6 5
7 7 7 7 7 6 6 7 7 7 8 8 6 13 13 12 7 6 6 6 6 6
9 9 11 10 10 8 7 6 7 6 8 8 7 12 12 8 6 6 5 5 5 6
11 11 12 11 11 6 6 4 4 4 4 5 7 12 14 9 6 6 5 4 4 5
11 12 11 9 7 6 7 7 6 6 5 6 8 9 15 14 7 7 6 5 4 3
Wind_Direction
218 222 219 221 220 218 216 215 208 205 210 213 214 216 217 220 221 220 224 228 229 235
218 218 222 219 217 218 213 219 207 206 208 215 215 216 215 220 223 219 226 227 229 231
221 221 222 222 218 217 215 209 206 207 208 212 217 216 216 223 225 224 223 220 217 221
224 226 224 224 223 218 216 209 208 207 213 212 214 217 219 218 223 222 222 207 214 222
234 227 228 224 223 219 216 213 211 209 212 218 218 218 212 213 199 214 216 217 215 224
229 225 225 224 222 221 217 218 214 213 214 217 214 212 209 204 211 212 215 214 208 191
239 229 226 221 223 222 212 210 208 204 209 211 209 210 202 199 202 185 167 157 163 169
240 236 224 218 203 195 194 206 199 195 189 168 177 178 172 163 154 146 143 134 138 158
209 211 209 178 166 164 172 168 159 168 166 162 156 160 155 148 149 149 159 156 165 171
186 199 207 185 177 181 176 156 167 159 153 153 150 160 155 156 154 157 174 166 162 180
182 204 188 181 182 172 166 177 173 169 164 159 169 172 165 164 152 151 151 151 155 171
196 188 197 197 190 182 167 175 183 172 166 166 161 177 169 152 132 133 138 131 160 153
196 194 200 198 195 172 172 151 145 146 161 148 158 172 168 156 144 144 132 118 123 130
195 191 193 182 189 169 156 143 151 155 166 168 169 173 173 170 154 151 150 150 149 123